NKS323 KBOS-KEWR

Flight info

Callsign NKS323
Flight time N/A
Altitude 16000
Route PATSS7 PATSS NELIE FLOSI4
Aircraft A20N/M-SDE2E3FGHIRWXY/LB1

Departure

Time 2026-05-08 01:05
Airport Boston Logan International Airport (KBOS)

Arrival

Time N/A
Airport Newark Liberty International Airport (KEWR)
Time Latitude Longitude Altitude Speed Heading
2026-05-08 00:46 42.36549 -71.01411 16 ft 0 kts 328°
2026-05-08 00:52 42.36545 -71.01407 23 ft 5 kts 328°
2026-05-08 00:53 42.36501 -71.01375 24 ft 7 kts 340°
2026-05-08 00:53 42.36459 -71.01368 23 ft 1 kts 26°
2026-05-08 00:56 42.36465 -71.01364 23 ft 0 kts 26°
2026-05-08 00:56 42.36506 -71.01336 24 ft 22 kts 26°
2026-05-08 00:56 42.36599 -71.01176 26 ft 7 kts 87°
2026-05-08 00:57 42.36601 -71.01211 27 ft 9 kts 101°
2026-05-08 00:57 42.36592 -71.01205 26 ft 2 kts 125°
2026-05-08 00:57 42.36612 -71.01239 27 ft 15 kts 141°
2026-05-08 00:57 42.36438 -71.01269 24 ft 33 kts 212°
2026-05-08 00:58 42.36320 -71.01304 27 ft 2 kts 166°
2026-05-08 00:58 42.36362 -71.01326 24 ft 0 kts 149°
2026-05-08 00:58 42.36350 -71.01316 24 ft 4 kts 144°
2026-05-08 00:58 42.36334 -71.01300 25 ft 0 kts 141°
2026-05-08 00:59 42.36327 -71.01291 25 ft 14 kts 136°
2026-05-08 00:59 42.36228 -71.01045 27 ft 37 kts 113°
2026-05-08 00:59 42.36149 -71.00807 24 ft 0 kts 115°
2026-05-08 00:59 42.36148 -71.00806 24 ft 1 kts 114°
2026-05-08 01:00 42.36110 -71.00670 22 ft 27 kts 108°
2026-05-08 01:00 42.36041 -71.00397 25 ft 34 kts 108°
2026-05-08 01:00 42.35958 -71.00098 28 ft 32 kts 120°
2026-05-08 01:00 42.35900 -71.00001 28 ft 0 kts 135°
2026-05-08 01:01 42.35898 -70.99999 28 ft 2 kts 135°
2026-05-08 01:01 42.35821 -70.99897 30 ft 30 kts 136°
2026-05-08 01:01 42.35612 -70.99618 28 ft 47 kts 135°
2026-05-08 01:01 42.35514 -70.99477 25 ft 0 kts 123°
2026-05-08 01:02 42.35513 -70.99474 26 ft 3 kts 122°
2026-05-08 01:02 42.35498 -70.99363 28 ft 0 kts 85°
2026-05-08 01:02 42.35497 -70.99366 28 ft 0 kts 85°
2026-05-08 01:03 42.35505 -70.99326 27 ft 20 kts 70°
2026-05-08 01:03 42.35550 -70.99249 29 ft 0 kts 33°
2026-05-08 01:03 42.35536 -70.99262 30 ft 7 kts 31°
2026-05-08 01:03 42.35543 -70.99275 29 ft 20 kts 360°
2026-05-08 01:04 42.35541 -70.99272 29 ft 8 kts 342°
2026-05-08 01:04 42.35558 -70.99289 26 ft 13 kts 324°
2026-05-08 01:04 42.35717 -70.99497 27 ft 71 kts 316°
2026-05-08 01:04 42.36304 -71.00275 31 ft 163 kts 316°
2026-05-08 01:05 42.37220 -71.01471 674 ft 198 kts 314°
2026-05-08 01:05 42.38256 -71.02885 1638 ft 216 kts 310°
2026-05-08 01:05 42.39080 -71.04512 3069 ft 213 kts 299°
2026-05-08 01:05 42.39838 -71.06349 3980 ft 240 kts 298°
2026-05-08 01:06 42.40560 -71.08415 4363 ft 250 kts 285°
2026-05-08 01:06 42.40577 -71.10750 4447 ft 253 kts 257°
2026-05-08 01:06 42.39739 -71.12872 4828 ft 259 kts 236°
2026-05-08 01:06 42.38671 -71.14841 5520 ft 262 kts 236°
2026-05-08 01:07 42.37598 -71.16853 6309 ft 265 kts 237°
2026-05-08 01:07 42.36540 -71.18857 7055 ft 265 kts 237°
2026-05-08 01:07 42.35464 -71.20904 7818 ft 267 kts 237°
2026-05-08 01:07 42.34389 -71.22954 8610 ft 268 kts 237°
2026-05-08 01:08 42.33660 -71.24342 9143 ft 268 kts 237°
2026-05-08 01:08 42.32560 -71.26439 9948 ft 285 kts 237°
2026-05-08 01:08 42.31365 -71.28721 10716 ft 306 kts 237°
2026-05-08 01:08 42.30118 -71.31092 11468 ft 312 kts 237°
2026-05-08 01:09 42.28857 -71.33478 12245 ft 312 kts 237°
2026-05-08 01:09 42.27593 -71.35869 13038 ft 312 kts 237°
2026-05-08 01:09 42.26352 -71.38217 13724 ft 312 kts 237°
2026-05-08 01:09 42.25093 -71.40600 13969 ft 313 kts 237°
2026-05-08 01:10 42.23832 -71.42986 14045 ft 312 kts 237°
2026-05-08 01:10 42.22569 -71.45375 14046 ft 313 kts 237°
2026-05-08 01:10 42.21311 -71.47754 14047 ft 312 kts 237°
2026-05-08 01:10 42.20051 -71.50138 14049 ft 311 kts 237°
2026-05-08 01:11 42.18780 -71.52538 14243 ft 325 kts 237°
2026-05-08 01:11 42.17434 -71.55085 14776 ft 343 kts 236°
2026-05-08 01:11 42.16011 -71.57769 15407 ft 357 kts 236°
2026-05-08 01:11 42.14542 -71.60533 15871 ft 367 kts 236°
2026-05-08 01:12 42.13051 -71.63328 16038 ft 369 kts 236°
2026-05-08 01:12 42.11550 -71.66139 16048 ft 370 kts 236°
2026-05-08 01:12 42.10045 -71.68956 16051 ft 370 kts 236°
2026-05-08 01:12 42.08648 -71.71570 16050 ft 370 kts 236°
2026-05-08 01:13 42.07398 -71.74603 16047 ft 370 kts 249°
2026-05-08 01:13 42.06819 -71.77975 16050 ft 372 kts 262°
2026-05-08 01:13 42.06675 -71.81454 16053 ft 373 kts 264°
2026-05-08 01:13 42.06519 -71.84933 16057 ft 372 kts 262°
2026-05-08 01:14 42.06228 -71.88383 16051 ft 371 kts 260°
2026-05-08 01:14 42.05824 -71.91798 16053 ft 371 kts 258°
2026-05-08 01:14 42.05351 -71.95217 16055 ft 371 kts 257°
2026-05-08 01:14 42.04847 -71.98625 16056 ft 371 kts 257°
2026-05-08 01:15 42.04335 -72.02017 16052 ft 371 kts 257°
2026-05-08 01:15 42.03819 -72.05421 16050 ft 371 kts 257°
2026-05-08 01:15 42.03305 -72.08822 16059 ft 371 kts 257°
2026-05-08 01:15 42.02791 -72.12230 16062 ft 371 kts 257°
2026-05-08 01:16 42.02277 -72.15631 16053 ft 374 kts 257°
2026-05-08 01:16 42.01759 -72.19045 16057 ft 378 kts 257°
2026-05-08 01:16 42.01236 -72.22499 16062 ft 378 kts 257°
2026-05-08 01:16 42.00710 -72.25963 16057 ft 378 kts 257°
2026-05-08 01:17 42.00183 -72.29429 16047 ft 379 kts 257°
2026-05-08 01:17 41.99655 -72.32889 16046 ft 377 kts 257°
2026-05-08 01:17 41.99126 -72.36344 16046 ft 378 kts 257°
2026-05-08 01:17 41.98596 -72.39806 16068 ft 378 kts 257°
2026-05-08 01:18 41.98063 -72.43271 16066 ft 379 kts 257°
2026-05-08 01:18 41.97530 -72.46741 16072 ft 379 kts 257°
2026-05-08 01:18 41.96994 -72.50215 16075 ft 379 kts 257°
2026-05-08 01:18 41.96470 -72.53605 16075 ft 379 kts 257°
2026-05-08 01:19 41.95923 -72.57148 16075 ft 380 kts 257°
2026-05-08 01:19 41.95383 -72.60631 16078 ft 380 kts 257°
2026-05-08 01:19 41.94843 -72.64104 16082 ft 380 kts 257°
2026-05-08 01:19 41.94313 -72.67503 16084 ft 380 kts 257°
2026-05-08 01:20 41.93898 -72.70162 16073 ft 381 kts 257°
2026-05-08 01:20 41.93489 -72.72783 16079 ft 380 kts 257°
2026-05-08 01:20 41.92999 -72.75890 16085 ft 386 kts 256°
2026-05-08 01:20 41.92444 -72.79424 16073 ft 387 kts 257°
2026-05-08 01:21 41.91890 -72.82958 16080 ft 387 kts 257°
2026-05-08 01:21 41.91333 -72.86511 16080 ft 387 kts 257°
2026-05-08 01:21 41.90779 -72.90043 16079 ft 388 kts 257°
2026-05-08 01:21 41.90224 -72.93576 16079 ft 387 kts 257°
2026-05-08 01:22 41.89664 -72.97120 16071 ft 388 kts 257°
2026-05-08 01:22 41.89109 -73.00669 16083 ft 389 kts 257°
2026-05-08 01:22 41.88550 -73.04190 16022 ft 378 kts 253°
2026-05-08 01:22 41.87695 -73.07386 15812 ft 353 kts 248°
2026-05-08 01:23 41.86801 -73.10364 15354 ft 338 kts 248°
2026-05-08 01:23 41.85897 -73.13223 14927 ft 325 kts 247°
2026-05-08 01:23 41.85000 -73.15941 14557 ft 313 kts 247°
2026-05-08 01:23 41.84115 -73.18545 14189 ft 302 kts 247°
2026-05-08 01:24 41.83279 -73.20972 13839 ft 293 kts 247°
2026-05-08 01:24 41.82442 -73.23388 13457 ft 286 kts 247°
2026-05-08 01:24 41.81605 -73.25801 13047 ft 279 kts 247°
2026-05-08 01:24 41.80809 -73.28099 12654 ft 273 kts 248°
2026-05-08 01:25 41.80016 -73.30386 12259 ft 268 kts 248°
2026-05-08 01:25 41.79236 -73.32635 11869 ft 263 kts 248°
2026-05-08 01:25 41.78469 -73.34844 11480 ft 260 kts 248°
2026-05-08 01:25 41.77703 -73.37053 11100 ft 263 kts 248°
2026-05-08 01:26 41.76943 -73.39239 10728 ft 260 kts 248°
2026-05-08 01:26 41.76180 -73.41427 10366 ft 260 kts 249°
2026-05-08 01:26 41.75414 -73.43627 9992 ft 261 kts 249°
2026-05-08 01:26 41.74668 -73.45770 9613 ft 258 kts 249°
2026-05-08 01:27 41.73901 -73.47977 9190 ft 257 kts 248°
2026-05-08 01:27 41.73141 -73.50158 8784 ft 260 kts 248°
2026-05-08 01:27 41.72383 -73.52332 8393 ft 258 kts 248°
2026-05-08 01:27 41.71698 -73.54299 8032 ft 260 kts 248°
2026-05-08 01:28 41.71018 -73.56247 7691 ft 260 kts 247°
2026-05-08 01:28 41.70264 -73.58402 7308 ft 258 kts 247°
2026-05-08 01:28 41.69498 -73.60594 7058 ft 260 kts 247°
2026-05-08 01:28 41.68737 -73.62764 6994 ft 260 kts 246°
2026-05-08 01:29 41.67960 -73.64975 6991 ft 261 kts 246°
2026-05-08 01:29 41.67191 -73.67166 6988 ft 261 kts 246°
2026-05-08 01:29 41.66417 -73.69367 6989 ft 261 kts 246°
2026-05-08 01:29 41.65645 -73.71558 6993 ft 261 kts 246°
2026-05-08 01:30 41.64872 -73.73755 6993 ft 261 kts 246°
2026-05-08 01:30 41.64095 -73.75958 6994 ft 262 kts 246°
2026-05-08 01:30 41.63323 -73.78148 6997 ft 261 kts 246°
2026-05-08 01:30 41.62545 -73.80352 6997 ft 262 kts 246°
2026-05-08 01:31 41.61771 -73.82544 6996 ft 261 kts 246°
2026-05-08 01:31 41.60994 -73.84742 6995 ft 261 kts 246°
2026-05-08 01:31 41.60218 -73.86936 6997 ft 261 kts 246°
2026-05-08 01:31 41.59441 -73.89129 6996 ft 261 kts 246°
2026-05-08 01:32 41.58664 -73.91322 6997 ft 261 kts 246°
2026-05-08 01:32 41.57885 -73.93520 6996 ft 261 kts 246°
2026-05-08 01:32 41.57119 -73.95680 6995 ft 261 kts 246°
2026-05-08 01:32 41.56341 -73.97868 6997 ft 261 kts 246°
2026-05-08 01:33 41.55563 -74.00056 6997 ft 261 kts 246°
2026-05-08 01:33 41.54794 -74.02217 6997 ft 260 kts 246°
2026-05-08 01:33 41.54012 -74.04415 6993 ft 260 kts 246°
2026-05-08 01:33 41.53233 -74.06601 6994 ft 260 kts 246°
2026-05-08 01:34 41.52459 -74.08771 6996 ft 260 kts 246°
2026-05-08 01:34 41.51678 -74.10959 6996 ft 260 kts 246°
2026-05-08 01:34 41.50900 -74.13138 6999 ft 260 kts 246°
2026-05-08 01:34 41.50121 -74.15317 6997 ft 260 kts 246°
2026-05-08 01:35 41.49343 -74.17490 6994 ft 260 kts 246°
2026-05-08 01:35 41.48564 -74.19665 6993 ft 259 kts 246°
2026-05-08 01:35 41.47784 -74.21843 6994 ft 259 kts 246°
2026-05-08 01:35 41.47009 -74.24009 6995 ft 259 kts 246°
2026-05-08 01:36 41.46240 -74.26153 6996 ft 259 kts 246°
2026-05-08 01:36 41.45464 -74.28314 6992 ft 259 kts 246°
2026-05-08 01:36 41.44687 -74.30478 6989 ft 259 kts 246°
2026-05-08 01:36 41.43906 -74.32649 6992 ft 259 kts 246°
2026-05-08 01:37 41.43365 -74.34152 6987 ft 259 kts 246°
2026-05-08 01:37 41.43076 -74.34956 6991 ft 259 kts 246°
2026-05-08 01:37 41.42340 -74.36980 6987 ft 259 kts 243°
2026-05-08 01:37 41.41195 -74.38793 6987 ft 264 kts 220°
2026-05-08 01:38 41.39499 -74.39867 6990 ft 269 kts 201°
2026-05-08 01:38 41.37712 -74.40611 6996 ft 269 kts 201°
2026-05-08 01:38 41.35933 -74.41353 6999 ft 268 kts 201°
2026-05-08 01:38 41.34152 -74.42105 7003 ft 269 kts 201°
2026-05-08 01:39 41.32378 -74.42864 7003 ft 268 kts 201°
2026-05-08 01:39 41.30596 -74.43630 7005 ft 268 kts 201°
2026-05-08 01:39 41.28827 -74.44391 7009 ft 268 kts 201°
2026-05-08 01:39 41.27054 -74.45152 7007 ft 267 kts 201°
2026-05-08 01:40 41.25277 -74.45914 7008 ft 268 kts 201°
2026-05-08 01:40 41.23500 -74.46675 7011 ft 268 kts 201°
2026-05-08 01:40 41.21727 -74.47434 7014 ft 268 kts 201°
2026-05-08 01:40 41.19975 -74.48182 7011 ft 258 kts 201°
2026-05-08 01:41 41.18327 -74.48882 7012 ft 241 kts 202°
2026-05-08 01:41 41.16932 -74.49888 6912 ft 222 kts 228°
2026-05-08 01:41 41.16055 -74.51502 6776 ft 214 kts 238°
2026-05-08 01:41 41.15216 -74.53135 6508 ft 220 kts 238°
2026-05-08 01:42 41.14331 -74.54865 6056 ft 227 kts 238°
2026-05-08 01:42 41.13451 -74.56601 5568 ft 232 kts 238°
2026-05-08 01:42 41.12546 -74.58399 5118 ft 237 kts 238°
2026-05-08 01:42 41.11631 -74.60232 4656 ft 240 kts 238°
2026-05-08 01:43 41.10707 -74.62093 4211 ft 243 kts 238°
2026-05-08 01:43 41.09799 -74.63915 4043 ft 230 kts 237°
2026-05-08 01:43 41.08944 -74.65634 4005 ft 217 kts 237°
2026-05-08 01:43 41.08113 -74.67304 4005 ft 219 kts 238°
2026-05-08 01:44 41.07282 -74.68978 4015 ft 217 kts 238°
2026-05-08 01:44 41.06451 -74.70654 4009 ft 217 kts 238°
2026-05-08 01:44 41.05432 -74.72102 4009 ft 219 kts 212°
2026-05-08 01:44 41.03964 -74.72612 4006 ft 223 kts 178°
2026-05-08 01:45 41.02441 -74.72224 4004 ft 224 kts 168°
2026-05-08 01:45 41.00921 -74.71739 4002 ft 224 kts 167°
2026-05-08 01:45 40.99409 -74.71257 4003 ft 224 kts 168°
2026-05-08 01:45 40.97896 -74.70776 3999 ft 224 kts 167°
2026-05-08 01:46 40.96399 -74.70300 3994 ft 224 kts 168°
2026-05-08 01:46 40.94891 -74.69822 3997 ft 224 kts 167°
2026-05-08 01:46 40.93442 -74.69361 3994 ft 224 kts 168°
2026-05-08 01:46 40.91926 -74.68880 3991 ft 224 kts 168°
2026-05-08 01:47 40.90412 -74.68400 3993 ft 224 kts 168°
2026-05-08 01:47 40.88898 -74.67922 3993 ft 224 kts 168°
2026-05-08 01:47 40.87388 -74.67445 3991 ft 224 kts 168°
2026-05-08 01:48 40.84405 -74.66291 3992 ft 225 kts 150°
2026-05-08 01:48 40.83079 -74.65175 3848 ft 226 kts 148°
2026-05-08 01:48 40.81744 -74.64032 3440 ft 233 kts 147°
2026-05-08 01:48 40.80352 -74.62863 2926 ft 242 kts 147°
2026-05-08 01:49 40.78901 -74.61671 2414 ft 249 kts 148°
2026-05-08 01:49 40.77469 -74.60499 2093 ft 247 kts 145°
2026-05-08 01:49 40.76283 -74.58959 1996 ft 230 kts 128°
2026-05-08 01:49 40.75333 -74.57412 1999 ft 206 kts 127°
2026-05-08 01:50 40.74455 -74.55990 2015 ft 199 kts 128°
2026-05-08 01:50 40.73589 -74.54581 2001 ft 198 kts 128°
2026-05-08 01:50 40.72744 -74.53183 2000 ft 193 kts 123°
2026-05-08 01:50 40.72202 -74.51580 2006 ft 191 kts 103°
2026-05-08 01:51 40.71995 -74.49852 2004 ft 190 kts 93°
2026-05-08 01:51 40.71912 -74.48128 2004 ft 190 kts 91°
2026-05-08 01:51 40.71829 -74.46394 2009 ft 188 kts 92°
2026-05-08 01:51 40.71740 -74.44727 2014 ft 179 kts 92°
2026-05-08 01:52 40.71653 -74.43089 2017 ft 179 kts 92°
2026-05-08 01:52 40.71572 -74.41547 2016 ft 179 kts 92°
2026-05-08 01:52 40.71486 -74.39927 2016 ft 179 kts 92°
2026-05-08 01:52 40.71404 -74.38393 2016 ft 179 kts 92°
2026-05-08 01:53 40.71318 -74.36764 2015 ft 179 kts 92°
2026-05-08 01:53 40.71229 -74.35108 2016 ft 178 kts 92°
2026-05-08 01:53 40.71144 -74.33500 2013 ft 179 kts 92°
2026-05-08 01:53 40.71069 -74.32076 2010 ft 178 kts 92°
2026-05-08 01:54 40.70988 -74.30559 1926 ft 179 kts 92°
2026-05-08 01:54 40.70902 -74.28927 1687 ft 176 kts 92°
2026-05-08 01:54 40.70816 -74.27311 1438 ft 176 kts 91°
2026-05-08 01:54 40.70730 -74.25689 1199 ft 176 kts 91°
2026-05-08 01:55 40.70646 -74.24109 958 ft 174 kts 92°
2026-05-08 01:55 40.70561 -74.22517 727 ft 174 kts 91°
2026-05-08 01:55 40.70475 -74.20893 481 ft 177 kts 92°
2026-05-08 01:55 40.70392 -74.19300 252 ft 175 kts 91°
2026-05-08 01:56 40.70276 -74.17799 495 ft 170 kts 96°
2026-05-08 01:56 40.70070 -74.16245 973 ft 184 kts 99°
2026-05-08 01:56 40.69752 -74.14399 1429 ft 226 kts 102°
2026-05-08 01:56 40.69475 -74.12179 1454 ft 248 kts 93°
2026-05-08 01:57 40.69373 -74.10316 1854 ft 215 kts 91°
2026-05-08 01:57 40.69475 -74.08399 1824 ft 200 kts 85°
2026-05-08 01:57 40.69468 -74.06581 2310 ft 218 kts 82°
2026-05-08 01:57 40.69909 -74.04572 2865 ft 260 kts 63°
2026-05-08 01:58 40.70723 -74.02132 2818 ft 323 kts 68°
2026-05-08 01:58 40.71860 -73.99557 3188 ft 314 kts 49°
2026-05-08 01:58 40.73422 -73.97796 3325 ft 283 kts 28°
2026-05-08 01:58 40.75192 -73.97022 3370 ft 258 kts
2026-05-08 01:59 40.76928 -73.97288 3435 ft 259 kts 340°
2026-05-08 01:59 40.78455 -73.98533 3503 ft 256 kts 315°
2026-05-08 01:59 40.79417 -74.00490 3602 ft 257 kts 290°
2026-05-08 01:59 40.79681 -74.02791 3626 ft 260 kts 268°
2026-05-08 02:00 40.79305 -74.05102 3592 ft 259 kts 248°
2026-05-08 02:00 40.78383 -74.07142 3911 ft 261 kts 236°
2026-05-08 02:00 40.77316 -74.09070 4055 ft 260 kts 233°
2026-05-08 02:00 40.76181 -74.10933 4069 ft 261 kts 231°
2026-05-08 02:01 40.74990 -74.12734 3966 ft 261 kts 229°
2026-05-08 02:01 40.73828 -74.14418 4004 ft 260 kts 229°
2026-05-08 02:01 40.72617 -74.16195 4083 ft 260 kts 229°
2026-05-08 02:01 40.71420 -74.17979 4179 ft 260 kts 229°
2026-05-08 02:02 40.70307 -74.19657 4243 ft 261 kts 230°
2026-05-08 02:02 40.69087 -74.21520 4287 ft 261 kts 230°
2026-05-08 02:02 40.68016 -74.23175 4327 ft 260 kts 230°
2026-05-08 02:02 40.66897 -74.24927 4368 ft 260 kts 231°
2026-05-08 02:03 40.65732 -74.26773 4113 ft 264 kts 231°
2026-05-08 02:03 40.64721 -74.28387 3859 ft 259 kts 231°
2026-05-08 02:03 40.63593 -74.30223 3740 ft 262 kts 232°
2026-05-08 02:03 40.62463 -74.32103 3465 ft 261 kts 232°
2026-05-08 02:04 40.61163 -74.33718 3307 ft 262 kts 210°
2026-05-08 02:04 40.59509 -74.34691 3148 ft 256 kts 203°
2026-05-08 02:04 40.57904 -74.35549 3061 ft 243 kts 201°
2026-05-08 02:04 40.56352 -74.36308 2951 ft 233 kts 199°
2026-05-08 02:05 40.54862 -74.36961 2956 ft 219 kts 198°
2026-05-08 02:05 40.53389 -74.37536 2983 ft 224 kts 196°
2026-05-08 02:05 40.51892 -74.38046 3001 ft 222 kts 193°
2026-05-08 02:05 40.50368 -74.38442 3038 ft 223 kts 189°
2026-05-08 02:06 40.48840 -74.38372 3091 ft 223 kts 161°
2026-05-08 02:06 40.47587 -74.37203 3165 ft 224 kts 126°
2026-05-08 02:06 40.47047 -74.35322 3219 ft 224 kts 93°
2026-05-08 02:06 40.47080 -74.33285 3249 ft 222 kts 85°
2026-05-08 02:07 40.47204 -74.31313 3215 ft 222 kts 83°
2026-05-08 02:07 40.47401 -74.29290 3153 ft 219 kts 80°
2026-05-08 02:07 40.47697 -74.27303 3197 ft 218 kts 71°
2026-05-08 02:07 40.48341 -74.25512 3504 ft 223 kts 56°
2026-05-08 02:08 40.49340 -74.23981 3539 ft 221 kts 41°
2026-05-08 02:08 40.50497 -74.22692 3542 ft 206 kts 38°
2026-05-08 02:08 40.51404 -74.21433 3823 ft 191 kts 52°
2026-05-08 02:08 40.52154 -74.19962 3769 ft 189 kts 54°
2026-05-08 02:09 40.52975 -74.18582 3776 ft 191 kts 46°
2026-05-08 02:09 40.53853 -74.17332 3746 ft 182 kts 45°
2026-05-08 02:09 40.54744 -74.16155 3615 ft 181 kts 43°
2026-05-08 02:09 40.55348 -74.15408 3439 ft 179 kts 41°
2026-05-08 02:10 40.56267 -74.14326 3196 ft 176 kts 40°
2026-05-08 02:10 40.57194 -74.13276 3104 ft 176 kts 39°
2026-05-08 02:10 40.58113 -74.12216 3003 ft 177 kts 44°
2026-05-08 02:10 40.59183 -74.10605 2895 ft 175 kts 47°
2026-05-08 02:11 40.59774 -74.09851 2902 ft 176 kts 39°
2026-05-08 02:11 40.60788 -74.08965 2742 ft 175 kts 27°
2026-05-08 02:11 40.62287 -74.08276 2274 ft 170 kts 13°
2026-05-08 02:11 40.63083 -74.08151 2240 ft 172 kts
2026-05-08 02:12 40.64285 -74.08206 2074 ft 172 kts 358°
2026-05-08 02:12 40.65454 -74.08293 1668 ft 171 kts 356°
2026-05-08 02:12 40.66623 -74.08476 1509 ft 170 kts 346°
2026-05-08 02:12 40.67660 -74.09219 1295 ft 172 kts 319°
2026-05-08 02:13 40.68441 -74.10398 1183 ft 163 kts 313°
2026-05-08 02:13 40.69124 -74.11460 1008 ft 160 kts 309°
2026-05-08 02:13 40.69712 -74.12576 799 ft 137 kts 300°
2026-05-08 02:13 40.69977 -74.13796 531 ft 147 kts 278°
2026-05-08 02:14 40.70015 -74.14607 307 ft 141 kts 277°
2026-05-08 02:14 40.70129 -74.15841 58 ft 129 kts 277°
2026-05-08 02:14 40.70204 -74.16874 24 ft 88 kts 274°